Printer-friendly version

IAU Minor Planet Center

Minor Planet Center

MPEC 2006-U97 : 2006 UQ216

The following Minor Planet Electronic Circular may be linked-to from your own Web pages, but must not otherwise be redistributed electronically.


Read MPEC 2006-U96 Read MPEC 2006-U98


M.P.E.C. 2006-U97                                Issued 2006 Oct. 31, 14:17 UT

     The Minor Planet Electronic Circulars contain information on unusual
         minor planets and routine data on comets.  They are published
   on behalf of Commission 20 of the International Astronomical Union by the
          Minor Planet Center, Smithsonian Astrophysical Observatory,
                          Cambridge, MA 02138, U.S.A.

             Prepared using the Tamkin Foundation Computer Network

                              MPC@CFA.HARVARD.EDU
          URL http://cfa-www.harvard.edu/iau/mpc.html  ISSN 1523-6714

                                  2006 UQ216

Observations:
     K06UL6Q* C2006 10 29.36988 04 07 08.00 +21 33 15.6          19.7 V EU097G96
     K06UL6Q  C2006 10 29.37111 04 07 08.84 +21 33 16.8          20.1 V EU097G96
     K06UL6Q  C2006 10 29.37234 04 07 09.68 +21 33 18.4                 EU097G96
     K06UL6Q  C2006 10 30.42248 04 22 30.32 +21 51 59.6          20.5 V EU097G96
     K06UL6Q  C2006 10 30.42419 04 22 31.69 +21 52 01.2          20.3 V EU097G96
     K06UL6Q  C2006 10 30.42582 04 22 33.09 +21 52 02.8          20.5 V EU097G96
     K06UL6Q  C2006 10 30.42750 04 22 34.46 +21 52 03.7          20.3 V EU097G96
     K06UL6Q  C2006 10 31.27984 04 37 37.63 +22 04 17.4          20.9 V EU097G96
     K06UL6Q  C2006 10 31.28723 04 37 44.94 +22 04 27.0          20.3 V EU097G96
     K06UL6Q  C2006 10 31.29447 04 37 52.14 +22 04 36.0          20.8 V EU097G96
     K06UL6Q  C2006 10 31.30178 04 37 59.34 +22 04 45.0          20.2 V EU097G96
     K06UL6Q 5C2006 10 31.38063 04 39 19.25 +22 05 47.9          20.4 R EU097673
     K06UL6Q 5C2006 10 31.38560 04 39 24.14 +22 05 52.0                 EU097673
     K06UL6Q 5C2006 10 31.39449 04 39 32.86 +22 05 59.8                 EU097673
     K06UL6Q 5C2006 10 31.39659 04 39 34.93 +22 06 01.3                 EU097673

Observer details:
673 Table Mountain Observatory, Wrightwood.  Observer J. Young.  0.61-m f/16
    Cassegrain + CCD.
G96 Mt. Lemmon Survey.  Observers A. R. Gibbs, E. J. Christensen,
    R. A. Kowalski.  Measurers E. C. Beshore, E. J. Christensen, G. J. Garradd,
    A. R. Gibbs, A. D. Grauer, R. E. Hill, R. A. Kowalski, S. M. Larson,
    R. H. McNaught.  1.5-m reflector + CCD.

Orbital elements:
2006 UQ216                                               Earth MOID = 0.0013 AU
Epoch 2006 Sept. 22.0 TT = JDT 2454000.5                MPC
M 278.17617              (2000.0)            P               Q
n   0.84018034     Peri.  245.12741     -0.23236283     -0.97261519
a   1.1122977      Node   218.30999     +0.89537860     -0.21181009
e   0.1658724      Incl.    0.48206     +0.37987455     -0.09568790
P   1.17           H   27.2           G   0.15           U   6
Residuals in seconds of arc
061029 G96  0.1-  0.2+    061030 G96  0.3+  0.2+    061031 G96  0.0   0.1+
061029 G96  0.0   0.1-    061030 G96  0.1+  0.2-    061031 673  0.2-  0.2+
061029 G96  0.1+  0.2+    061031 G96  0.1+  0.5-    061031 673  0.0   0.0
061030 G96  0.0   0.3-    061031 G96  0.3-  0.2-    061031 673  0.0   0.4+
061030 G96  0.5-  0.1-    061031 G96  0.2+  0.1-    061031 673  0.1+  0.2+

Ephemeris:
2006 UQ216               a,e,i = 1.11, 0.17, 0                   q = 0.9278
Date    TT    R. A. (2000) Decl.     Delta      r     Elong.  Phase     V
2006 11 01    04 51.52   +22 13.5    0.0205   1.009   144.1    35.2    20.2
2006 11 02    05 14.28   +22 15.9    0.0188   1.007   139.9    39.4    20.2
2006 11 03    05 41.11   +22 03.3    0.0173   1.004   134.7    44.6    20.1
2006 11 04    06 12.27   +21 28.0    0.0161   1.002   128.5    50.8    20.1
2006 11 05    06 47.52   +20 21.2    0.0151   0.999   121.2    58.1    20.2
2006 11 06    07 25.82   +18 37.0    0.0145   0.997   113.0    66.3    20.3
2006 11 07    08 05.34   +16 16.1    0.0143   0.995   104.3    74.9    20.6
2006 11 08    08 43.89   +13 28.2    0.0145   0.992    95.6    83.6    20.9
2006 11 09    09 19.57   +10 29.0    0.0150   0.990    87.4    91.8    21.3
2006 11 10    09 51.26   +07 34.0    0.0160   0.988    80.0    99.1    21.8
2006 11 11    10 18.66   +04 53.5    0.0172   0.985    73.7   105.3    22.2

Timothy B. Spahr             (C) Copyright 2006 MPC           M.P.E.C. 2006-U97

Read MPEC 2006-U96 Read MPEC 2006-U98


Our Web policy. Index to the CBAT/MPC/ICQ pages.


Valid HTML 4.01!